Stations météo

réclame
Mon MeteoGroup
Svanberga, Suède (2490): Température de l'air & dewpoint: 18.01.2020 16:00:00 - 24.01.2020 16:00:00 (CET)Svanberga, Suède (2490): Vitesse du vent & gusts: 18.01.2020 16:00:00 - 24.01.2020 16:00:00 (CET)Svanberga, Suède (2490): Direction du vent: 18.01.2020 16:00:00 - 24.01.2020 16:00:00 (CET)Svanberga, Suède (2490): reduced air pressure: 18.01.2020 16:00:00 - 24.01.2020 16:00:00 (CET)Svanberga, Suède (2490): visibility: 18.01.2020 16:00:00 - 24.01.2020 16:00:00 (CET)Svanberga, Suède (2490): Quantités de précipitations: 18.01.2020 16:00:00 - 24.01.2020 16:00:00 (CET)
Date & Time tt [°C] td [°C] ff [km/h] ff [knt] fx [km/h] fx [knt] dd ppp [hPa] vv [km] rr [mm]
24.01.2020 16:00:00 0,9 -0,3 4 2 11 6 SW 1002,0 26 0,0
24.01.2020 15:00:00 3,9 1,1 3 2 13 7 W 1002,3 50 0,0
24.01.2020 14:00:00 6,1 1,6 6 3 27 14 W 1002,5 50 0,0
24.01.2020 13:00:00 6,3 2,0 7 4 25 14 W 1002,9 50 0,0
24.01.2020 12:00:00 6,0 2,5 9 5 23 12 W 1003,0 50 0,0
24.01.2020 11:00:00 5,7 2,7 11 6 24 13 W 1003,0 50 0,0
24.01.2020 10:00:00 5,0 2,9 9 5 21 11 W 1002,9 43 0,0
24.01.2020 09:00:00 2,8 1,6 3 2 13 7 SW 1003,0 42 0,0
24.01.2020 08:00:00 4,0 2,4 6 3 19 11 WNW 1003,2 45 0,0
24.01.2020 07:00:00 4,1 2,5 8 5 21 11 W 1003,1 40 0,0
24.01.2020 06:00:00 4,4 2,7 9 5 21 11 W 1003,5 50 0,0
24.01.2020 05:00:00 4,0 2,5 6 4 21 11 SW 1003,8 45 0,0
24.01.2020 04:00:00 4,4 2,6 6 4 21 11 SW 1004,2 50 0,0
24.01.2020 03:00:00 5,0 2,9 8 4 21 11 W 1004,8 50 0,0
24.01.2020 02:00:00 5,4 3,1 8 4 22 12 SW 1005,1 50 0,0
24.01.2020 01:00:00 5,3 3,1 9 5 23 12 WSW 1005,3 50 0,0
24.01.2020 00:00:00 5,4 3,1 7 4 21 12 W 1005,5 50 0,0
23.01.2020 23:00:00 5,3 3,0 8 5 27 15 SW 1006,0 49 0,0
23.01.2020 22:00:00 5,0 2,9 10 6 29 15 WSW 1006,5 40 0,0
23.01.2020 21:00:00 4,3 2,2 9 5 22 12 WSW 1006,9 42 0,0
23.01.2020 20:00:00 3,6 1,5 9 5 19 10 WSW 1008,0 49 0,0
23.01.2020 19:00:00 3,1 1,0 9 5 21 11 WSW 1008,2 45 0,0
23.01.2020 18:00:00 2,7 0,4 7 4 24 13 SW 1008,7 45 0,0
23.01.2020 17:00:00 2,3 0,0 8 5 21 12 SW 1009,2 48 0,0
23.01.2020 16:00:00 1,8 -1,3 7 4 24 13 SSW 1009,9 50 0,0
23.01.2020 15:00:00 2,2 -2,0 9 5 22 12 SW 1011,1 48 0,0
23.01.2020 14:00:00 2,1 -3,0 10 5 20 11 SSW 1011,9 50 0,0
23.01.2020 13:00:00 1,8 -3,3 8 4 20 11 SSW 1012,9 46 0,0
23.01.2020 12:00:00 1,2 -3,9 5 3 23 12 SSW 1014,5 46 0,0
23.01.2020 11:00:00 0,3 -4,3 5 3 17 9 SW 1016,2 44 0,0
23.01.2020 10:00:00 -0,8 -4,9 5 3 17 9 SSW 1017,0 47 0,0
23.01.2020 09:00:00 -2,4 -5,5 5 3 13 7 SSW 1018,3 37 0,0
23.01.2020 08:00:00 -3,3 -6,3 3 2 11 6 SW 1019,9 44 0,0
23.01.2020 07:00:00 -3,5 -6,3 3 1 12 6 SSW 1020,9 48 0,0
23.01.2020 06:00:00 -3,4 -6,2 3 2 9 5 SSW 1021,8 44 0,0
23.01.2020 05:00:00 -2,5 -6,1 4 2 15 8 SW 1022,7 47 0,0
23.01.2020 04:00:00 -2,0 -6,0 5 3 13 7 SSW 1023,3 50 0,0
23.01.2020 03:00:00 -1,9 -5,7 4 2 15 8 SSW 1023,8 50 0,0
23.01.2020 02:00:00 -0,9 -5,1 5 3 13 7 W 1024,0 50 0,0
23.01.2020 01:00:00 -1,0 -4,5 4 2 14 7 W 1024,2 50 0,0
23.01.2020 00:00:00 0,0 -4,3 5 3 20 11 NW 1024,0 50 0,0
22.01.2020 23:00:00 0,8 -3,9 8 4 17 9 NW 1024,1 50 0,0
22.01.2020 22:00:00 1,2 -3,7 9 5 22 12 NW 1023,7 50 0,0
22.01.2020 21:00:00 1,7 -3,4 9 5 21 11 NW 1023,7 50 0,0
22.01.2020 20:00:00 1,7 -3,6 7 4 19 10 NNW 1023,2 50 0,0
22.01.2020 19:00:00 1,6 -3,5 9 5 24 13 NNW 1022,9 50 0,0
22.01.2020 18:00:00 1,8 -3,3 8 5 19 10 NNW 1022,1 50 0,0
22.01.2020 17:00:00 2,0 -3,3 8 4 19 11 NW 1021,9 50 0,0
22.01.2020 16:00:00 3,0 -4,0 10 5 29 16 NNW 1021,2 50 0,0
22.01.2020 15:00:00 3,4 -4,1 10 5 34 18 NNW 1020,1 50 0,0
22.01.2020 14:00:00 3,9 -3,8 14 7 38 21 NNW 1019,0 50 0,0
22.01.2020 13:00:00 4,3 -3,2 14 8 41 22 NNW 1017,8 50 0,0
22.01.2020 12:00:00 4,3 -3,5 16 8 49 26 NNW 1016,5 50 0,0
22.01.2020 11:00:00 3,6 -5,1 14 7 30 16 NW 1015,4 50 0,0
22.01.2020 10:00:00 3,0 -5,2 16 9 35 19 WNW 1014,4 44 0,0
22.01.2020 09:00:00 2,2 -5,0 13 7 32 17 WNW 1013,2 50 0,0
22.01.2020 08:00:00 2,2 -4,5 11 6 28 15 WNW 1012,3 50 0,0
22.01.2020 07:00:00 2,3 -4,4 13 7 30 16 WNW 1011,6 50 0,0
22.01.2020 06:00:00 2,6 -3,7 10 6 34 19 WNW 1011,6 50 0,0
22.01.2020 05:00:00 3,0 -3,6 9 5 34 18 W 1011,5 50 0,0
22.01.2020 04:00:00 3,4 -3,6 12 6 42 23 WNW 1011,3 50 0,0
22.01.2020 03:00:00 3,9 -3,2 14 7 32 18 WNW 1011,4 50 0,0
22.01.2020 02:00:00 4,5 -3,3 15 8 31 17 WNW 1011,7 50 0,0
22.01.2020 01:00:00 4,9 -3,4 14 8 50 27 WNW 1011,7 50 0,0
22.01.2020 00:00:00 5,1 -3,2 12 6 32 17 W 1012,0 50 0,0
21.01.2020 23:00:00 5,7 -3,7 11 6 34 19 W 1012,4 50 0,0
21.01.2020 22:00:00 5,9 -3,7 11 6 44 24 W 1013,5 50 0,0
21.01.2020 21:00:00 5,7 -3,7 14 8 32 17 W 1013,9 50 0,0
21.01.2020 20:00:00 5,4 -2,2 12 6 25 14 W 1015,0 50 0,0
21.01.2020 19:00:00 4,9 -2,9 6 4 22 12 W 1016,0 50 0,0
21.01.2020 18:00:00 5,7 -3,4 11 6 23 13 W 1016,6 50 0,0
21.01.2020 17:00:00 5,5 -0,8 8 4 26 14 W 1017,5 50 0,0
21.01.2020 16:00:00 5,2 0,6 7 4 21 11 W 1017,7 50 0,0
21.01.2020 15:00:00 5,1 0,5 8 5 24 13 WSW 1017,5 50 0,0
21.01.2020 14:00:00 5,4 0,6 7 4 16 9 WNW 1017,5 50 0,0
21.01.2020 13:00:00 6,0 0,7 6 3 23 12 WNW 1017,1 50 0,0
21.01.2020 12:00:00 6,0 2,8 7 4 16 8 W 1017,2 50 0,0
21.01.2020 11:00:00 5,7 3,4 4 2 18 10 W 1016,6 50 0,0
21.01.2020 10:00:00 5,9 4,2 7 4 18 10 WNW 1016,1 47 0,1
21.01.2020 09:00:00 6,5 5,3 9 5 25 13 NW 1015,8 5 0,4
21.01.2020 08:00:00 6,9 4,4 8 4 31 17 WNW 1014,1 24 0,0
21.01.2020 07:00:00 7,3 4,6 13 7 36 19 W 1013,4 24 0,0
21.01.2020 06:00:00 7,2 4,7 16 9 39 21 W 1013,0 23 0,0
21.01.2020 05:00:00 7,3 4,9 16 9 37 20 W 1013,3 21 0,0
21.01.2020 04:00:00 7,6 4,7 15 8 35 19 W 1013,5 32 0,0
21.01.2020 03:00:00 8,1 4,9 14 8 39 21 W 1014,0 43 0,0
21.01.2020 02:00:00 8,3 4,7 20 11 44 24 W 1014,6 44 0,0
21.01.2020 01:00:00 7,6 4,4 14 8 35 19 W 1015,2 36 0,0
21.01.2020 00:00:00 7,0 4,0 15 8 39 21 W 1016,3 37 0,0
20.01.2020 23:00:00 7,2 3,6 16 9 39 21 W 1017,1 33 0,0
20.01.2020 22:00:00 6,8 3,1 16 8 35 19 W 1017,9 31 0,0
20.01.2020 21:00:00 5,9 2,5 12 6 32 17 WSW 1018,9 27 0,0
20.01.2020 20:00:00 5,7 2,2 13 7 32 18 WSW 1019,3 30 0,0
20.01.2020 19:00:00 5,9 2,2 13 7 38 20 WSW 1020,3 35 0,0
20.01.2020 18:00:00 5,6 1,7 12 6 27 15 WSW 1021,2 48 0,0
20.01.2020 17:00:00 5,3 1,4 10 6 30 16 W 1021,5 50 0,0
20.01.2020 16:00:00 5,4 1,1 11 6 32 17 W 1022,1 50 0,0
20.01.2020 15:00:00 5,1 1,0 13 7 29 16 W 1023,1 50 0,0
20.01.2020 14:00:00 4,6 0,7 9 5 25 13 WSW 1023,5 49 0,0
20.01.2020 13:00:00 4,3 0,3 11 6 26 14 W 1024,7 50 0,0
20.01.2020 12:00:00 3,7 -0,6 9 5 22 12 WSW 1025,0 39 0,0
20.01.2020 11:00:00 3,2 -1,4 8 5 26 14 WSW 1025,6 48 0,0
20.01.2020 10:00:00 2,5 -1,8 9 5 30 16 WSW 1026,2 50 0,0
20.01.2020 09:00:00 1,9 -2,6 11 6 27 14 WSW 1026,7 50 0,0
20.01.2020 08:00:00 1,2 -3,7 5 3 16 9 WSW 1027,3 50 0,0
20.01.2020 07:00:00 0,7 -4,3 4 2 22 12 WSW 1027,6 50 0,0
20.01.2020 06:00:00 0,5 -4,1 6 4 19 10 WSW 1028,2 50 0,0
20.01.2020 05:00:00 0,3 -3,8 5 3 20 11 WSW 1029,2 50 0,0
20.01.2020 04:00:00 0,2 -3,7 5 3 14 8 WSW 1029,5 50 0,0
20.01.2020 03:00:00 0,2 -3,7 3 2 13 7 WSW 1030,3 50 0,0
20.01.2020 02:00:00 0,5 -4,0 4 2 12 7 WSW 1031,0 50 0,0
20.01.2020 01:00:00 0,8 -4,0 5 3 13 7 WSW 1030,4 50 0,0
20.01.2020 00:00:00 1,3 -3,8 5 3 14 8 W 1030,6 50 0,0
19.01.2020 23:00:00 0,8 -3,3 4 2 13 7 WNW 1030,7 50 0,0
19.01.2020 22:00:00 1,0 -3,1 4 2 15 8 W 1030,5 50 0,0
19.01.2020 21:00:00 1,4 -3,1 6 3 20 11 W 1030,0 50 0,0
19.01.2020 20:00:00 2,3 -3,0 7 4 16 9 W 1029,5 50 0,0
19.01.2020 19:00:00 1,5 -2,8 6 3 15 8 W 1029,3 50 0,0
19.01.2020 18:00:00 2,6 -2,5 5 3 14 8 W 1028,2 50 0,0
19.01.2020 17:00:00 2,1 -2,4 4 2 12 7 W 1027,1 50 0,0
19.01.2020 16:00:00 2,4 -2,1 4 2 12 7 W 1025,9 50 0,0
19.01.2020 15:00:00 4,0 -1,2 5 3 23 12 W 1025,2 50 0,0
19.01.2020 14:00:00 4,8 -1,2 8 5 18 10 WNW 1024,1 50 0,0
19.01.2020 13:00:00 4,4 -0,6 8 4 21 11 W 1023,0 50 0,0
19.01.2020 12:00:00 4,0 -0,6 5 3 20 11 W 1022,0 50 0,0
19.01.2020 11:00:00 3,2 -0,4 8 4 21 11 W 1021,0 50 0,0
19.01.2020 10:00:00 2,1 -0,2 6 3 14 8 WSW 1020,0 50 0,0
19.01.2020 09:00:00 1,4 0,1 6 3 18 10 W 1019,0 50 0,0
19.01.2020 08:00:00 1,4 0,5 6 3 18 10 W 1017,4 50 0,0
19.01.2020 07:00:00 0,4 -0,3 3 1 12 7 WSW 1016,2 46 0,0
19.01.2020 06:00:00 2,2 1,5 6 3 15 8 WSW 1015,1 50 0,0
19.01.2020 05:00:00 2,9 1,9 6 4 14 8 W 1013,9 50 0,0
19.01.2020 04:00:00 3,4 2,2 4 2 21 11 SW 1012,4 50 0,0
19.01.2020 03:00:00 4,6 2,6 8 5 20 11 WSW 1010,9 50 0,0
19.01.2020 02:00:00 4,6 2,5 8 5 22 12 SW 1009,4 50 0,0
19.01.2020 01:00:00 4,6 2,5 8 4 21 12 WSW 1008,2 50 0,0
19.01.2020 00:00:00 4,8 2,2 8 5 24 13 SW 1007,5 50 0,0
18.01.2020 23:00:00 4,8 2,3 8 5 28 15 SW 1007,0 50 0,0
18.01.2020 22:00:00 4,6 2,0 6 4 18 10 SSW 1006,6 50 0,0
18.01.2020 21:00:00 4,3 2,0 5 3 14 8 SW 1006,3 50 0,0
18.01.2020 20:00:00 3,8 2,0 4 2 15 8 SSW 1006,2 50 0,0
18.01.2020 19:00:00 4,1 2,5 4 2 20 11 SSW 1005,9 50 0,0
18.01.2020 18:00:00 4,3 3,4 6 3 16 9 S 1005,9 27 0,0
18.01.2020 17:00:00 5,0 4,0 5 3 15 8 SSW 1005,9 27 0,0
18.01.2020 16:00:00 5,7 4,3 5 3 20 11 S 1005,7 17 0,0

tt = Température de l'air
td = dewpoint
ff = Vitesse du vent
fx = gusts
dd = Direction du vent
ppp = reduced air pressure
vv = visibility
rr = Quantités de précipitations

stations d'obs. à proximité